Simultaneous Nadir Overpasses (SNOs) Predictions

Prediction of SNOs between METOP-A and TERRA Satellite Orbit:

Table of predicted SNOs for the next 14.0 days since TLE Epoch: 9/7/2019
Index Date (METOP-A) Time (METOP-A) Lat,Lon (METOP-A) SZA (METOP-A ) Date (TERRA) Time (TERRA) Lat,Lon (TERRA) SZA (TERRA ) Distance(km) Time Diff (sec)
1 09/08/2019 06:27:07 81.47, 125.69 77.99 09/08/2019 06:28:11 81.31, 130.20 78.40 77.05 64
2 09/08/2019 07:17:30 -81.45, -59.77 101.23 09/08/2019 07:17:31 -81.44, -59.60 101.21 2.96 1
3 09/08/2019 08:08:09 81.44, 108.23 78.86 09/08/2019 08:06:57 81.45, 108.20 78.83 0.90 72
4 09/11/2019 02:01:13 81.45,-160.51 79.87 09/11/2019 02:02:18 81.45,-160.66 79.88 2.54 65
5 09/11/2019 02:51:54 -81.45, 6.84 100.12 09/11/2019 02:51:45 -81.44, 6.87 100.12 0.71 9
6 09/13/2019 21:35:37 81.45, -94.33 80.94 09/13/2019 21:36:31 81.45, -94.23 80.98 1.76 54
7 09/13/2019 22:26:17 -81.44, 73.43 99.00 09/13/2019 22:25:58 -81.44, 73.32 99.03 1.76 19
8 09/16/2019 17:10:01 81.45, -27.77 82.06 09/16/2019 17:10:45 81.45, -27.80 82.08 0.57 44
9 09/16/2019 18:00:42 -81.45, 139.62 97.92 09/16/2019 18:00:12 -81.44, 139.77 97.92 2.60 30
10 09/19/2019 12:44:25 81.45, 38.79 83.19 09/19/2019 12:44:59 81.45, 38.61 83.19 2.90 34




NCC Satellite Simultaneous Nadir Overpasses (SNOs) Prediction Service
